weather.gov     
National Weather Service

Regional Weather Roundup
NWS Homepage
This page is being discontinued on March 12, 2014.
The same data is available at this site. Please update your bookmarks.
Thank you, and we apologize for the inconvenience.
Please send an email to SR-SRH.Webmaster@noaa.gov with any concerns.


Current Version
Previous Version:    01  02  03  04  05  06  07  08  09  10  11  12  13  14  15  16  17  18  19  20  21  22  23  24  25  26  27  28  29  30  
   31  32  33  34  35  36  37  38  39  40  41  42  43  44  45  46  47  48  49  50  51  52  53  54  55  56  57  58  59  60  
[Printable]
789
NZUS01 KOTX 160410
RWROTX
EASTERN WASHINGTON/NORTHERN IDAHO ROUNDUP
NATIONAL WEATHER SERVICE, SPOKANE WA
900 PM PDT TUE APR 15 2014

Note: "fair" indicated few or no clouds below 12,000 feet with no
significant weather and/or obstructions to visibility.

...NORTHEAST WASHINGTON AND NORTHERN IDAHO PANHANDLE...

CITY           SKY/WX    TMP DP  RH WIND       PRES   REMARKS
SPOKANE INTL   CLOUDY    47  23  38 W10       29.92R
SPOKANE DOWNTO MOCLDY    44  28  53 N3        29.92R
COEUR D ALENE  PTCLDY    39  34  81 E5        29.93R
DEER PARK      PTCLDY    39  27  62 CALM      29.92R
SANDPOINT      PTCLDY    43  30  61 CALM      29.90S

...SOUTHEAST WASHINGTON AND SOUTHERN IDAHO PANHANDLE...

CITY           SKY/WX    TMP DP  RH WIND       PRES   REMARKS
WALLA WALLA    MOCLDY    52  35  52 SW9       30.03R
PULLMAN/MOSCOW PTCLDY    47  22  37 W10       29.98R
LEWISTON       CLOUDY    54  20  26 SW8       29.98R
LOWELL           N/A     44  42  93 CALM      30.04R

...COLUMBIA BASIN...

CITY           SKY/WX    TMP DP  RH WIND       PRES   REMARKS
EPHRATA        CLOUDY    54  23  30 W24G32    29.96R
MOSES LAKE     CLOUDY    55  23  28 W15       29.99R
TRI CITIES     CLOUDY    55  27  34 NW15      30.01R
HERMISTON      CLOUDY    54  35  48 SW13      30.02R
PENDLETON      CLOUDY    51  31  46 W22       30.02S

...EAST SLOPES CASCADES...

CITY           SKY/WX    TMP DP  RH WIND       PRES   REMARKS
THE DALLES     CLOUDY    55  35  47 NW6       30.09R
YAKIMA         MOCLDY    54  27  35 W10       30.03R
ELLENSBURG     PTCLDY    46  31  55 W9        30.04R
WENATCHEE      MOCLDY    54  24  31 NW12      30.01R
OMAK           CLOUDY    50  22  33 NW8       29.95R

...SOUTHERN BRITISH COLUMBIA...

CITY           SKY/WX    TMP DP  RH WIND       PRES   REMARKS
PENTICTON      CLOUDY    50  28  43 W5        29.96R
CASTLEGAR      MOCLDY    48  28  46 N5        29.92R
CRANBROOK      PTCLDY    37  30  75 E3        29.85R

...WESTERN MONTANA...

CITY           SKY/WX    TMP DP  RH WIND       PRES   REMARKS
MISSOULA       MOCLDY    41  30  65 NW5       29.96R

...NEIGHBORING CITIES...

CITY           SKY/WX    TMP DP  RH WIND       PRES   REMARKS
SEATTLE        CLOUDY    52  29  41 SW8       30.12R
CALGARY        LGT SNOW  32  30  93 N20       29.89R WCI  20




U.S. Dept. of Commerce
NOAA National Weather Service
1325 East West Highway
Silver Spring, MD 20910
E-mail: w-nws.webmaster@noaa.gov
Page last modified: May 16, 2007
NATIONAL WEATHER SERVICE: for Safety, for Work, for Fun - FOR LIFE